Location: Goettingen
(51.5300°N, 9.9433°E)
Time: 11:36:12
(UTC+02:00)

ISS - Pass Details

Date: 17 May 2025
Orbit: 416 x 419 km, 51.6° (Epoch: 18 May)

Event Time Altitude Azimuth Distance (km) Brightness Sun altitude
Rises 22:13:35 0° 272° (W) 2,360 0.8 -8.5°
Reaches altitude 10° 22:15:41 10° 273° (W) 1,496 -0.2 -8.7°
Maximum altitude 22:19:03 86° 0° (N) 423 -3.7 -9.0°
Drops below altitude 10° 22:22:24 10° 92° (E) 1,495 -1.4 -9.4°
Enters shadow 22:23:12 - 93° (E) 1,820 -0.9 -9.5°
